Regional Weather Roundup
Issued by NWS

Home | Current Version | Previous Version | Graphics & Text | Print | Product List | Glossary On
Versions: 1 2 3 4 5 6 7 8 9 10 11 12 13 14 15 16 17 18 19 20 21 22 23 24 25 26 27 28 29 30 31 32 33 34 35 36 37 38 39 40 41 42 43 44 45 46 47 48 49 50
431
ASUS43 KBIS 271010
RWRND

NORTH DAKOTA REGIONAL WEATHER ROUNDUP
NATIONAL WEATHER SERVICE BISMARCK ND
500 AM CDT TUE SEP 27 2016

NOTE: "FAIR" INDICATES FEW OR NO CLOUDS BELOW 12,000 FEET WITH NO
SIGNIFICANT WEATHER AND/OR OBSTRUCTIONS TO VISIBILITY.


NDZ001>003-009>011-017-271100-
NORTHWEST NORTH DAKOTA

CITY           SKY/WX    TMP DP  RH WIND       PRES   REMARKS
WILLISTON      CLEAR     39  36  89 CALM      30.02F
MINOT          CLEAR     43  37  79 SW9       30.01S
MINOT AFB      CLEAR     39  36  87 W7        30.00S
$$

NDZ018>021-031>035-040>046-271100-
SOUTHWEST NORTH DAKOTA

CITY           SKY/WX    TMP DP  RH WIND       PRES   REMARKS
BISMARCK       CLEAR     38  35  89 CALM      30.03S
DICKINSON      CLEAR     44  38  79 W3        30.02F
GARRISON         N/A     39  36  89 N3        30.02F
HETTINGER ARPT CLEAR     41  38  89 NW3       30.08F
$$

NDZ004>008-012>016-024-026-027-054-271100-
NORTHEAST NORTH DAKOTA

CITY           SKY/WX    TMP DP  RH WIND       PRES   REMARKS
GRAND FORKS    CLEAR     41  36  82 W8        29.91S
GRND FRKS AFB  CLEAR     46  37  71 NW12      29.91F
DEVILS LAKE    CLEAR     40  36  86 NW8       29.97F
$$

NDZ022-023-025-028>030-036>039-047>053-271100-
SOUTHEAST NORTH DAKOTA

CITY           SKY/WX    TMP DP  RH WIND       PRES   REMARKS
FARGO          CLEAR     39  33  79 W6        29.93R
JAMESTOWN      CLEAR     42  37  82 W7        29.98S
$$





USA.gov is the U.S. government's official web portal to all federal, state and local government web resources and services.